FENGYUN 1C DEB

Satellite information

Favourite Embed

Satellite Type and Status

DEBRISIN ORBIT

Key statistics

Satellite FENGYUN 1C DEB at a glance.

Uptime

9666

Days in orbit

Revolutions

≈ 14.0

Per day

Orbit

SSO

Sun Synchronous Orbit

Inclination

98.4

Latest

Satellite identification and parameters

Extended collection of information and parameters for FENGYUN 1C DEB.

Object identification

Identified? True

Debris? True

Object name: FENGYUN 1C DEB

International designator: 1999-025SU

Object number (NORAD): 30139

Object ID (CCSDS): 30139

Country: PEOPLES REPUBLIC OF CHINA (PRC)

Current information (Y/N): Y

RCS size: SMALL

Orbital parameters

Period: 102.607 minutes

Inclination: 98.3696 deg

SMA: 7260.153 km

Apoapsis: 978.275 km

Periapsis: 785.762 km

RAAN: 145.9669 deg

Eccentricy: 0.01325819

Argument of periapsis: 66.252 deg

Mean anomaly: 350.3481 deg

Mean motion: 14.03408421 rev/day

Mean motion (dot): 0.0000184 rev/day2

B* drag term: 0.0011105663 1/REarth

Two-line elements (TLE)

Creation date: Oct. 26, 2025, 2:54 a.m.

Reference frame: TEME

Reference center: EARTH

Epoch: Oct. 25, 2025, 1:37 p.m. UTC

TLE line 0: 0 FENGYUN 1C DEB

TLE line 1: 1 30139U 99025SU 25298.56786516 .00001840 00000-0 11106-2 0 9995

TLE line 2: 2 30139 98.3696 145.9669 0132582 66.2520 350.3481 14.03408421955742

Live tracking on map

Real-time ground track for satellite FENGYUN 1C DEB.

In-orbit conjunctions

A list of the most updated potential collisions computed for object FENGYUN 1C DEB.

Target Orbit TCA Probability of collision Miss distance Type
DELTA 1 DEB SSO 2024-11-14 01:45:34 0.001817606 85.0 (m) DEBRIS
METEOR 2-10 LEO 2024-11-01 05:32:26 0.0003281131 142.0 (m) PAYLOAD
CZ-6A DEB LEO 2024-10-04 01:34:22 0.0004300126 735.0 (m) DEBRIS
COSMOS 489 LEO 2024-09-20 17:55:13 0.0002175106 406.0 (m) PAYLOAD

Associated space launch

Chinese polar orbiting meteorological satellite

FENGYUN 1C DEB was lifted into orbit during the mission ‘Long March 4B | Feng Yun 1C’, on board a Long March 4B space rocket.

The launch took place on May 10, 1999, 1:33 a.m. from Launch Complex 7.

For more information about the launch, click the button.

Launch to space Long March 4B | Feng Yun 1C
Long March 4B | Feng Yun 1C

Agency: N/A

Status: Launch Successful

Launch date: May 10, 1999, 1:33 a.m. UTC

Rocket: Long March 4B

Launch pad: Launch Complex 7

Location: Taiyuan Satellite Launch Center, People's Republic of China

...

Latest news about this satellite

There are no fresh news available about this satellite. Check back as we update our databases every day.


Newsletter sign-up

Weekly statistics, charts and insights to help you stay on top of the space industry.